CAPE
29 15 21 0 0 0 0 0 0 0 0 2 0 0 0 0 2 1 0 0 0 7 6 6 0 0 0 0 0 4 0 16 0 38 0 0 0 2 2 0 0 3 0 0
19 5 23 0 0 0 0 1 9 52 2 0 0 0 0 0 0 4 0 0 0 0 3 22 3 8 43 12 1 0 7 1 0 0 19 0 0 0 0 0 10 0 0 0
14 4 17 4 0 2 0 13 7 93 21 0 0 0 0 0 4 2 2 2 0 0 0 23 7 1 20 8 0 0 2 0 0 0 0 26 27 0 0 0 0 0 0 0
12 9 14 6 0 2 3 21 0 2 12 1 0 9 0 0 14 3 0 25 13 0 0 1 1 3 84 0 0 0 0 0 0 0 0 10 10 5 8 0 0 0 0 0
19 4 15 4 0 0 15 10 9 34 24 6 0 0 6 16 39 1 0 39 28 0 0 0 0 52 217 15 4 0 0 0 0 0 0 0 0 0 0 0 0 0 0 0
18 7 30 3 2 25 13 1 39 71 7 0 0 0 16 10 54 4 0 64 72 21 100 171 291 177 213 82 103 0 16 15 6 0 0 0 0 0 0 0 0 0 0 0
5 14 35 6 24 9 14 0 100 48 1 2 0 0 48 20 23 26 78 191 85 188 214 154 125 125 157 204 177 200 177 112 23 0 0 0 0 0 0 0 0 0 0 0
3 35 30 2 19 2 2 1 85 60 0 11 0 2 64 211 149 11 100 252 416 245 328 161 21 2 0 0 0 1 28 40 0 0 0 0 0 0 0 0 0 0 0 0
1 27 18 0 38 27 2 1 0 261 32 8 0 38 135 192 128 243 40 146 298 362 389 311 28 0 7 0 0 0 0 0 0 0 0 0 0 0 0 0 0 0 0 0
0 20 1 0 0 0 1 3 3 78 78 31 19 4 0 216 205 226 179 36 74 162 319 52 0 0 0 5 31 0 0 0 0 0 0 0 0 0 0 0 0 0 0 0
8 17 0 0 0 0 6 1 0 3 88 100 167 75 73 135 211 239 213 73 111 272 0 0 24 18 51 0 4 0 0 0 0 0 0 0 0 0 0 0 0 0 0 0
27 19 0 0 0 0 2 4 0 0 254 315 345 134 102 164 327 492 175 206 158 251 177 195 393 55 61 35 0 0 0 0 0 0 0 0 0 0 0 0 0 0 0 0
27 7 0 0 0 0 1 2 0 155 223 189 282 167 63 21 124 300 286 430 329 305 519 406 321 0 79 0 0 3 0 0 0 0 0 0 0 0 0 0 0 0 0 0
25 9 1 0 0 0 2 1 0 180 194 120 148 134 89 4 110 347 609 691 545 632 563 154 0 0 143 26 12 0 0 0 0 0 0 0 0 0 0 0 0 0 0 0
2 2 0 0 2 1 2 2 1 15 262 62 86 56 27 44 135 243 336 575 431 405 49 0 29 43 29 5 0 0 0 0 0 0 0 0 0 0 0 0 0 0 0 0
6 1 4 1 1 3 4 15 0 37 225 84 57 8 44 102 146 151 260 359 416 457 17 15 0 0 63 0 0 0 0 0 0 0 0 0 0 0 0 0 0 0 0 0
0 0 1 2 1 7 24 9 0 0 112 34 13 13 0 51 72 83 102 184 159 220 0 0 0 0 4 0 0 0 0 0 0 0 0 0 0 0 0 0 0 0 0 0
1 1 1 2 1 0 1 0 0 0 16 2 0 0 3 0 56 12 5 10 0 0 0 0 0 0 0 0 0 0 0 0 0 0 0 0 0 0 0 1 0 0 0 0
2 3 1 1 28 9 0 0 0 0 0 0 0 0 1 0 2 0 0 1 0 1 0 0 0 0 0 0 0 0 0 0 0 0 0 0 0 0 1 0 0 0 0 0
0 1 26 24 0 0 0 0 13 0 0 0 0 0 1 1 2 0 0 0 0 0 0 0 1 0 0 0 0 0 0 0 0 0 0 0 1 0 0 0 0 0 0 0
56 2 0 0 0 4 0 0 0 0 0 0 0 0 0 0 0 0 0 0 0 0 0 0 0 0 1 0 0 0 0 0 0 0 0 0 0 0 0 0 0 0 0 0
14 1 0 2 5 0 0 0 0 0 0 0 1 1 2 0 0 0 0 0 0 0 1 0 0 1 1 1 0 0 0 0 0 0 0 0 0 0 0 0 0 0 0 0
0 0 0 0 0 0 0 0 0 0 0 1 0 0 0 0 0 0 0 0 0 0 0 0 0 1 2 1 0 1 0 0 0 0 0 0 0 0 0 0 0 0 0 0
0 0 0 0 0 0 0 0 0 0 0 3 1 0 1 0 0 0 0 0 0 0 0 0 1 2 0 0 0 0 0 0 0 0 0 0 0 0 0 0 0 0 0 0
0 0 0 0 1 1 1 1 1 0 0 1 2 1 1 0 0 0 0 1 0 1 1 1 1 0 0 0 0 0 0 0 0 0 0 0 0 0 0 0 0 0 0 0
0 0 0 1 0 1 1 0 0 0 0 0 0 0 0 0 0 0 1 0 0 1 0 1 0 0 0 0 0 0 0 0 0 0 0 0 0 0 0 0 0 0 0 0
1 0 0 2 1 0 0 0 0 0 0 0 1 0 0 1 0 0 1 0 1 1 1 1 1 0 0 0 0 0 0 0 0 0 0 0 0 0 0 0 0 0 0 0
CIN
-0 -3 -21 -0 -0 -0 -0 -0 -0 -0 -0 -0 -0 -0 -0 -0 -9 -7 -0 -0 -0 -1 -4 -4 -0 -0 -0 -0 -0 -44 -0 -8 -4 -16 -0 -0 -0 -0 -0 -1 -0 -6 -0 -1
-2 -7 -21 -0 -0 -0 -0 -0 -2 -20 -4 -0 -0 -0 -0 -0 -0 -10 -0 -0 -0 -0 -10 -2 -1 -2 -53 -58 -11 -0 -6 -14 -0 -0 -3 -0 -0 -0 -0 -0 -1 -0 -0 -0
-14 -20 -19 -17 -0 -1 -0 -0 -8 -26 -1 -0 -0 -0 -0 -0 -4 -2 -0 -1 -0 -0 -0 -2 -1 -0 -90 -123 -0 -0 -3 -0 -0 -0 -0 -5 -6 -0 -0 -0 -0 -0 -0 -0
-31 -31 -33 -17 -0 -0 -8 -1 -0 -7 -1 -0 -0 -1 -0 -0 -2 -4 -0 -4 -2 -0 -0 -1 -0 -2 -74 -0 -0 -0 -0 -0 -0 -0 -0 -4 -15 -9 -2 -0 -0 -0 -0 -0
-1 -7 -31 -30 -0 -0 -0 -0 -1 -3 -3 -0 -0 -0 -3 -1 -5 -0 -0 -2 -2 -0 -1 -0 -0 -2 -13 -65 -28 -0 -0 -0 -0 -0 -0 -0 -0 -0 -0 -0 -0 -0 -0 -0
-2 -21 -15 -24 -1 -0 -0 -3 -16 -10 -14 -4 -0 -0 -25 -8 -18 -8 -0 -3 -2 -21 -5 -5 -20 -5 -6 -8 -23 -0 -18 -29 -7 -0 -0 -0 -0 -0 -0 -0 -0 -0 -0 -0
-14 -16 -6 -19 -2 -2 -2 -1 -10 -2 -0 -5 -0 -0 -1 -19 -5 -7 -4 -4 -3 -23 -64 -42 -43 -37 -18 -6 -9 -9 -6 -15 -12 -0 -0 -0 -0 -0 -0 -0 -0 -0 -0 -0
-21 -4 -1 -20 -6 -8 -0 -25 -5 -5 -0 -1 -0 -0 -9 -7 -5 -10 -4 -36 -38 -57 -48 -55 -51 -53 -0 -0 -0 -7 -18 -14 -0 -0 -0 -0 -0 -0 -0 -0 -0 -0 -0 -0
-3 -2 -5 -0 -15 -4 -0 -0 -0 -6 -4 -1 -0 -3 -9 -4 -0 -29 -89 -109 -66 -40 -33 -26 -15 -0 -32 -0 -0 -0 -0 -0 -0 -0 -0 -0 -0 -0 -0 -0 -0 -0 -0 -0
-0 -19 -5 -0 -0 -0 -0 -0 -0 -4 -10 -9 -6 -13 -0 -0 -3 -5 -56 -158 -133 -126 -79 -60 -0 -0 -0 -5 -42 -0 -0 -0 -0 -0 -0 -0 -0 -0 -0 -0 -0 -0 -0 -0
-17 -12 -0 -0 -0 -0 -0 -0 -0 -0 -15 -0 -3 -3 -6 -1 -0 -8 -72 -86 -75 -65 -0 -0 -17 -43 -33 -0 -13 -0 -0 -0 -0 -0 -0 -0 -0 -0 -0 -0 -0 -0 -0 -0
-20 -7 -12 -0 -0 -0 -0 -0 -0 -0 -1 -22 -91 -160 -159 -173 -71 -8 -88 -26 -74 -61 -53 -70 -35 -56 -67 -38 -0 -0 -0 -0 -0 -0 -0 -0 -0 -0 -0 -0 -0 -0 -0 -0
-13 -11 -0 -0 -0 -0 -0 -0 -0 -34 -5 -35 -49 -49 -173 -259 -200 -106 -40 -31 -24 -41 -26 -74 -70 -0 -64 -0 -0 -1 -0 -0 -0 -0 -0 -0 -0 -0 -0 -0 -0 -0 -0 -0
-12 -10 -3 -0 -0 -0 -0 -0 -0 -11 -13 -14 -28 -114 -176 -306 -240 -123 -103 -33 -50 -71 -89 -100 -0 -0 -34 -57 -35 -0 -0 -0 -0 -0 -0 -0 -0 -0 -0 -0 -0 -0 -0 -0
-12 -2 -0 -0 -0 -0 -0 -0 -0 -11 -7 -47 -51 -120 -192 -186 -170 -128 -114 -70 -70 -89 -106 -0 -56 -95 -20 -24 -0 -0 -0 -0 -0 -0 -0 -0 -0 -0 -0 -0 -0 -0 -0 -0
-0 -0 -0 -0 -0 -0 -0 -0 -1 -14 -47 -52 -52 -66 -103 -98 -101 -99 -66 -63 -38 -49 -156 -140 -5 -0 -77 -0 -0 -0 -0 -0 -0 -0 -0 -0 -0 -0 -0 -0 -0 -0 -0 -0
-0 -0 -0 -0 -0 -11 -0 -4 -0 -0 -93 -95 -75 -81 -0 -77 -89 -102 -98 -102 -129 -101 -0 -0 -0 -0 -75 -0 -0 -0 -0 -0 -0 -0 -0 -0 -0 -0 -0 -0 -0 -0 -0 -0
-0 -0 -0 -0 -0 -0 -0 -0 -0 -0 -41 -50 -0 -0 -0 -0 -38 -113 -207 -126 -0 -0 -0 -0 -0 -0 -0 -0 -0 -0 -0 -0 -0 -0 -0 -0 -0 -0 -0 -0 -0 -0 -0 -0
-0 -0 -0 -0 -2 -5 -0 -0 -0 -0 -1 -0 -0 -0 -0 -0 -0 -0 -0 -0 -0 -0 -0 -0 -0 -0 -0 -0 -0 -0 -0 -0 -0 -0 -0 -0 -0 -0 -0 -0 -0 -0 -0 -0
-0 -0 -23 -2 -0 -0 -0 -0 -8 -0 -0 -0 -0 -0 -0 -0 -0 -0 -0 -0 -0 -0 -0 -0 -0 -0 -0 -0 -0 -0 -0 -0 -0 -0 -0 -0 -0 -0 -0 -0 -0 -0 -0 -0
-1 -4 -0 -0 -0 -10 -1 -0 -0 -0 -0 -0 -0 -0 -0 -0 -0 -0 -0 -0 -0 -0 -0 -0 -0 -0 -0 -0 -0 -0 -0 -0 -0 -0 -0 -0 -0 -0 -0 -0 -0 -0 -0 -0
-1 -2 -0 -13 -3 -0 -0 -0 -0 -0 -0 -0 -0 -0 -0 -0 -0 -0 -0 -0 -0 -0 -0 -0 -0 -0 -0 -0 -0 -0 -0 -0 -0 -0 -0 -0 -0 -0 -0 -0 -0 -0 -0 -0
-0 -0 -0 -0 -0 -0 -0 -0 -0 -0 -0 -0 -0 -0 -0 -0 -0 -0 -0 -0 -0 -0 -0 -0 -0 -0 -0 -0 -0 -0 -0 -0 -0 -0 -0 -0 -0 -0 -0 -0 -0 -0 -0 -0
-0 -0 -0 -0 -0 -0 -0 -0 -0 -0 -0 -0 -0 -0 -0 -0 -0 -0 -0 -0 -0 -0 -0 -0 -0 -0 -0 -0 -0 -0 -0 -0 -0 -0 -0 -0 -0 -0 -0 -0 -0 -0 -0 -0
-0 -0 -0 -0 -0 -0 -0 -0 -0 -0 -0 -0 -0 -0 -0 -0 -0 -0 -0 -0 -0 -0 -0 -0 -0 -0 -0 -0 -0 -0 -0 -0 -0 -0 -0 -0 -0 -0 -0 -0 -0 -0 -0 -0
-0 -0 -0 -0 -0 -0 -0 -0 -0 -0 -0 -0 -0 -0 -0 -0 -0 -0 -0 -0 -0 -0 -0 -0 -0 -0 -0 -0 -0 -0 -0 -0 -0 -0 -0 -0 -0 -0 -0 -0 -0 -0 -0 -0
-0 -0 -0 -0 -0 -0 -0 -0 -0 -0 -0 -0 -0 -0 -0 -0 -0 -0 -0 -0 -0 -0 -0 -0 -0 -0 -0 -0 -0 -0 -0 -0 -0 -0 -0 -0 -0 -0 -0 -0 -0 -0 -0 -0
Wind_Speed
46 44 40 37 36 31 28 31 34 21 21 26 30 29 23 28 38 10 12 8 17 10 12 4 5 4 20 24 26 25 25 23 27 25 24 20 25 25 16 20 24 21 19 27
46 43 41 39 37 36 32 34 28 20 24 33 30 33 45 43 34 11 5 4 9 11 9 4 5 18 16 12 18 22 23 24 29 30 20 18 23 26 23 28 22 21 21 18
47 44 42 40 40 38 34 33 34 28 37 41 33 30 35 45 31 12 10 9 5 8 6 8 12 20 16 17 18 18 21 23 28 26 27 23 20 19 22 17 22 25 35 33
47 46 43 42 43 41 36 38 38 34 34 37 38 33 34 26 20 14 24 12 8 7 5 14 19 21 16 18 18 18 18 25 28 32 32 28 29 28 21 24 27 20 25 28
47 47 45 44 44 42 44 44 38 32 33 38 44 46 51 21 20 13 13 16 9 10 10 22 18 20 16 16 15 13 14 20 23 28 28 31 33 36 35 34 34 34 33 32
47 47 45 46 46 44 46 45 42 31 40 35 42 55 31 22 19 16 16 17 18 16 20 16 14 18 10 16 9 9 10 15 17 24 24 27 32 32 31 34 33 28 32 30
46 47 46 48 48 53 42 45 36 38 38 38 39 32 27 22 17 20 16 19 17 18 8 7 8 11 13 13 14 9 11 14 17 22 20 26 27 19 21 22 25 27 29 28
44 46 47 49 49 51 52 43 34 34 42 33 31 29 25 27 27 27 23 19 19 13 15 17 17 19 19 17 15 14 14 13 18 20 20 27 30 19 19 20 22 23 24 25
44 45 47 48 49 48 54 45 29 31 35 39 28 29 24 24 20 20 21 13 16 20 17 18 21 20 21 16 14 18 15 12 15 18 20 20 19 16 18 19 23 20 20 21
43 46 48 49 51 52 49 42 36 31 31 31 30 31 29 26 22 18 18 18 20 22 20 21 21 22 19 17 14 15 15 15 15 18 22 25 24 15 19 22 21 20 23 24
44 47 49 49 51 56 48 46 37 24 21 22 31 28 32 29 24 21 19 18 22 20 22 22 20 20 19 21 15 13 12 12 16 16 20 26 14 16 19 18 17 21 24 24
46 50 52 48 51 56 49 45 35 35 28 19 17 19 17 22 28 22 22 24 21 21 20 21 19 20 19 19 19 15 17 13 14 12 18 15 12 17 16 19 23 24 23 25
50 54 52 51 54 53 50 44 30 25 20 15 19 22 21 19 20 21 25 25 24 21 19 19 20 22 19 18 20 20 15 16 18 20 22 15 13 17 20 23 24 24 24 24
51 54 51 51 57 52 47 41 34 26 21 18 21 20 23 23 23 20 19 21 19 16 17 20 22 22 20 20 21 18 19 14 18 20 19 19 17 18 22 22 22 23 24 25
53 53 52 55 54 50 42 36 35 26 22 20 18 19 22 23 22 22 22 21 21 22 23 24 24 21 20 20 20 21 18 21 21 23 19 20 18 20 21 22 23 23 23 24
54 54 51 50 47 42 34 30 34 22 15 13 19 19 20 19 19 19 20 25 24 23 23 24 22 21 22 21 23 19 17 18 20 20 18 17 17 20 21 21 22 22 22 21
51 52 48 46 48 38 31 24 21 18 17 16 17 20 20 17 16 18 17 21 23 23 23 24 22 21 20 22 25 17 17 18 19 18 15 18 17 18 19 19 20 20 21 21
46 45 45 43 39 25 25 19 18 17 14 15 16 21 21 21 21 22 21 24 23 23 23 22 23 20 22 25 17 16 16 17 18 18 18 13 14 16 18 18 18 19 20 19
38 36 34 34 30 25 22 17 18 18 15 18 21 21 22 18 20 18 19 22 25 21 23 22 20 23 25 20 17 17 18 19 16 15 14 14 15 16 17 17 17 18 18 19
31 30 31 30 26 16 9 13 15 14 17 18 23 19 17 18 17 19 22 21 22 25 23 18 23 24 19 18 18 19 18 16 13 15 17 15 15 15 15 16 19 19 19 20
32 25 24 20 15 13 14 17 17 18 19 20 20 18 15 19 19 20 19 20 20 24 23 23 24 25 20 17 17 16 15 14 16 14 13 12 13 13 15 17 18 18 19 21
20 16 18 19 19 15 18 18 18 19 20 19 19 16 14 15 16 17 18 20 19 23 16 21 24 21 14 14 14 14 13 12 11 11 11 11 13 14 15 16 17 19 20 22
14 15 18 19 19 19 20 21 22 17 16 17 14 13 14 14 14 15 17 17 20 12 20 22 23 14 11 11 11 11 9 8 8 10 12 12 13 14 15 17 19 19 22 24
17 18 20 20 24 22 20 20 16 14 12 9 10 13 16 15 16 16 18 18 16 19 21 24 16 12 9 9 8 8 8 8 10 10 11 12 13 15 17 18 20 21 23 25
12 13 14 17 18 15 15 14 12 11 6 7 9 12 14 15 16 16 16 18 20 21 22 18 9 7 7 6 7 8 7 8 10 10 11 12 14 16 17 19 21 22 25 27
12 13 13 13 10 11 10 8 7 10 10 11 13 14 16 17 16 17 19 19 22 20 18 13 8 6 6 6 7 5 7 8 10 11 12 14 15 17 18 20 23 23 26 29
16 15 12 12 10 11 12 11 11 14 12 13 14 16 18 14 18 18 19 21 20 16 13 8 5 5 5 6 6 6 8 9 11 12 13 15 16 17 20 23 26 27 27 30
Wind_Direction
231 231 231 230 225 215 217 232 239 222 201 228 239 238 243 191 216 274 287 267 183 163 169 181 196 264 262 252 250 256 261 278 257 270 278 290 283 281 307 296 290 301 300 281
227 227 226 224 218 207 217 228 230 216 208 232 233 240 235 206 200 198 247 217 171 166 168 186 244 266 274 278 265 261 261 268 259 262 290 306 293 287 292 285 297 292 294 306
222 222 222 220 214 207 216 221 224 231 231 235 231 228 239 204 201 203 256 274 240 159 178 270 273 261 271 276 277 282 278 274 267 281 280 302 305 303 291 299 291 289 253 274
218 219 219 217 212 206 215 223 228 225 229 228 232 231 238 191 201 223 265 260 202 189 185 268 261 258 277 280 283 285 286 280 281 275 276 290 280 278 294 286 284 294 295 289
215 217 217 214 210 208 217 221 222 224 239 228 227 228 200 203 201 222 229 261 239 244 257 257 260 265 275 282 291 291 298 291 294 285 286 279 277 263 267 270 271 277 282 289
214 215 215 212 208 207 217 222 227 226 230 226 223 220 233 214 235 225 227 254 257 248 253 259 267 272 277 294 303 294 306 304 303 292 296 290 279 282 280 276 278 293 288 295
212 214 212 211 208 212 220 219 226 228 230 224 225 225 228 214 220 237 247 254 241 247 241 271 289 295 296 300 307 311 308 306 306 297 301 289 295 303 300 300 299 300 298 304
212 212 211 208 209 213 217 221 232 233 231 228 218 210 216 235 242 239 251 253 256 225 245 256 266 272 282 290 302 303 306 308 301 296 295 288 282 304 308 310 310 316 315 317
212 211 209 206 206 211 214 222 237 237 231 231 217 209 212 223 230 236 251 244 238 241 247 252 256 265 275 288 307 301 305 307 298 297 294 299 311 314 317 319 310 330 334 333
211 209 207 206 209 211 213 220 229 240 243 238 221 206 215 227 235 233 237 239 240 246 245 247 255 262 277 283 297 309 309 301 294 293 293 295 300 321 321 311 316 329 330 331
209 206 203 204 206 208 210 215 225 233 241 224 220 219 228 224 225 232 233 234 240 238 243 248 256 265 273 280 296 307 313 313 304 301 300 297 325 323 315 327 339 333 331 334
205 201 200 203 204 204 207 213 223 228 240 242 227 220 234 231 239 232 226 241 234 243 246 252 260 266 275 284 287 299 301 314 316 316 314 324 339 332 336 334 330 332 335 335
199 196 199 201 199 198 203 208 219 239 231 235 223 224 235 241 247 250 235 240 240 243 253 254 264 268 275 283 285 290 302 309 306 307 314 321 331 336 337 335 335 337 338 337
195 195 197 198 196 200 204 211 221 240 241 238 234 239 237 248 246 253 251 240 246 249 257 260 265 268 275 281 289 294 298 311 310 308 311 324 329 337 336 339 341 340 341 340
191 191 194 191 192 196 205 217 224 250 242 240 238 241 249 248 247 251 250 242 241 249 255 260 262 272 280 285 290 293 299 304 303 305 319 321 327 334 337 338 339 342 345 347
182 184 186 187 191 194 202 219 235 253 256 251 238 246 247 248 246 250 249 243 247 251 256 260 269 277 279 283 286 299 311 318 318 314 327 332 335 339 342 343 345 349 351 353
177 179 184 188 187 194 206 222 231 245 252 253 248 244 245 246 246 252 256 249 249 255 258 263 268 273 283 286 287 297 313 318 323 324 328 327 327 334 345 349 352 355 356 356
175 178 181 186 189 206 220 240 232 248 254 261 256 248 241 249 246 246 261 248 251 258 260 266 268 276 283 284 295 308 315 321 325 329 332 337 344 345 346 349 351 352 353 355
176 177 177 184 202 214 221 237 244 253 264 256 249 252 246 249 248 252 253 252 248 262 260 265 271 275 279 290 296 305 313 314 321 333 339 340 340 343 347 350 352 351 352 355
163 165 185 195 206 212 221 233 240 249 261 259 244 262 248 244 246 250 245 252 252 255 264 273 273 277 291 298 303 305 311 314 320 321 321 332 338 344 348 351 352 354 354 354
178 195 202 200 204 222 243 241 245 254 261 253 251 251 252 248 244 245 254 254 260 262 268 270 275 280 288 298 306 317 322 323 325 330 336 343 347 350 350 352 355 356 354 352
199 184 192 212 227 243 240 247 257 257 252 248 241 249 254 253 252 256 259 263 269 269 275 276 279 289 298 305 311 319 326 332 339 347 353 356 356 358 359 358 355 355 355 352
187 210 224 231 238 241 244 243 244 256 250 247 248 248 256 258 266 265 266 271 272 281 281 282 289 297 309 316 323 332 343 355 3 2 360 1 2 0 358 356 354 354 352 351
221 225 224 235 234 243 249 248 253 258 265 252 246 257 264 267 268 276 274 279 282 283 285 288 297 300 316 325 337 345 347 357 1 3 3 2 1 359 358 356 355 352 349 349
234 239 243 245 243 254 263 260 262 268 281 271 272 277 284 279 280 286 288 286 288 290 292 303 311 317 322 331 342 347 356 358 356 356 356 358 356 354 354 354 353 352 349 348
266 259 249 245 256 262 270 278 277 283 283 289 287 281 282 283 287 288 288 287 291 303 310 314 321 323 332 341 345 358 356 356 354 354 353 353 353 352 352 354 350 349 348 346
251 254 267 273 275 275 271 281 283 278 284 286 292 286 286 304 293 294 301 299 306 316 323 339 342 342 350 4 3 6 358 355 353 353 352 352 353 353 348 344 345 346 346 346